Temp
46 46 46 46 47 47 47 46 46 45 46 49 49 49 49 50 51 47 41 45 40 33 34 42 42 34 35 37 30 31 31 30 27 24 24 23 24 30 29 31 28 25 22 21 23 20 18 39 37 33 39 40 42 42
46 46 46 46 46 46 47 46 46 46 45 44 45 47 50 50 50 48 38 43 42 34 32 39 39 42 43 41 36 33 31 30 30 24 25 26 23 26 28 22 33 24 30 26 27 27 36 40 42 43 43 42 42 42
45 45 46 46 46 46 46 46 46 46 46 45 43 44 46 49 50 45 40 41 38 34 33 35 33 40 44 42 42 31 31 31 30 32 28 27 25 30 23 26 29 32 35 31 30 34 36 39 40 41 43 42 44 44
45 45 45 45 45 46 46 46 46 46 46 46 45 44 43 44 45 44 37 37 39 35 29 29 39 34 41 43 42 41 35 35 33 32 28 27 27 32 28 30 30 33 34 32 30 35 36 37 40 42 42 41 42 43
45 45 45 45 45 45 45 45 46 46 46 47 46 46 46 45 45 41 40 40 40 37 28 29 39 40 43 42 40 41 38 35 33 30 28 26 30 30 29 31 28 34 32 30 28 38 39 39 42 42 41 41 42 41
45 45 45 45 45 45 45 45 45 46 46 46 46 47 46 46 44 40 34 39 40 36 33 25 33 36 39 40 38 37 36 34 32 31 28 31 32 31 26 25 33 35 37 39 37 39 39 41 41 42 41 41 42 41
44 44 44 45 44 45 45 45 45 45 46 46 46 46 46 45 40 33 31 36 42 39 32 27 28 35 36 37 34 35 35 32 34 31 30 31 31 32 28 24 34 35 37 38 39 39 37 39 38 41 40 41 41 41
44 44 44 44 44 44 44 44 45 45 45 46 45 44 44 44 42 36 37 43 40 35 34 25 25 30 36 30 29 33 31 32 30 30 32 31 32 31 25 32 34 36 37 37 38 39 41 41 39 39 40 40 39 39
44 44 44 44 44 44 44 44 45 45 45 45 44 44 38 33 30 34 43 41 36 34 25 25 24 22 34 30 31 31 31 25 30 27 29 32 26 23 31 33 34 36 36 38 39 39 39 37 37 37 39 39 37 37
44 44 44 44 44 44 44 44 44 44 44 43 37 29 23 33 42 39 33 28 27 28 30 24 28 23 30 28 25 27 27 26 23 28 31 27 27 34 35 37 38 38 38 39 35 33 34 34 35 35 35 35 35 35
44 44 44 44 44 44 44 44 44 43 42 32 28 27 34 39 34 27 21 24 26 24 28 26 29 26 31 27 26 28 25 27 21 26 25 24 25 31 33 31 34 35 35 35 35 34 34 33 32 32 33 34 34 34
44 44 44 44 44 44 44 44 44 35 33 35 34 34 33 28 24 21 21 26 26 23 26 27 26 28 30 33 29 28 26 26 21 29 24 21 28 33 31 30 32 34 34 34 35 33 33 33 33 32 33 33 33 33
44 44 44 44 44 44 44 44 44 42 38 34 30 26 25 23 18 19 15 21 21 26 30 29 25 30 30 32 26 25 21 20 29 22 22 27 32 31 32 32 32 34 34 34 33 34 34 33 33 32 31 32 32 32
43 44 44 44 44 44 44 44 43 39 33 28 24 14 17 17 22 24 25 26 27 30 31 31 28 29 30 27 27 19 24 26 20 17 21 28 32 32 31 32 32 32 33 32 32 33 32 31 31 31 30 30 28 30
43 43 43 42 44 44 44 43 41 34 28 25 25 13 19 24 26 27 26 29 28 32 29 28 29 30 26 23 26 24 20 17 21 21 27 30 29 29 30 31 31 30 28 31 31 29 26 29 29 28 29 30 30 28
43 41 38 42 43 44 43 37 33 30 25 26 27 22 24 24 21 23 26 27 30 30 32 30 28 26 23 26 23 20 21 17 23 27 30 31 30 31 31 31 30 31 30 30 31 29 28 29 27 28 24 25 27 27
41 34 41 42 43 42 42 33 29 23 25 24 16 25 23 22 22 22 27 28 31 31 25 27 22 22 26 22 23 27 23 27 29 28 31 33 32 32 32 30 28 29 29 30 27 26 27 29 27 27 26 28 28 28
35 39 41 43 41 37 32 31 23 22 23 23 19 19 22 23 23 24 26 30 30 28 28 25 28 24 22 21 22 27 27 29 30 32 31 32 32 31 32 31 30 30 30 25 26 27 26 27 28 27 28 27 27 27
38 39 41 41 39 33 27 29 30 19 21 23 23 23 24 24 25 26 27 30 30 32 30 29 23 23 24 28 26 27 27 29 27 28 31 30 29 28 27 28 29 28 27 29 29 28 27 27 27 28 28 27 25 26
40 40 40 41 37 31 28 27 32 26 23 23 26 24 25 25 26 25 26 30 32 31 28 25 25 27 27 29 29 30 29 29 27 25 26 28 27 26 29 30 31 29 29 29 28 24 26 27 28 27 28 27 26 26
36 35 38 38 34 32 29 26 26 27 29 25 26 26 23 26 26 26 27 32 29 28 26 28 26 28 27 26 28 30 30 30 29 30 27 25 28 30 30 31 30 30 28 27 28 27 24 26 27 29 28 27 28 28
31 38 34 35 28 28 26 31 28 29 25 27 26 27 23 23 24 26 31 28 28 27 24 24 25 27 28 28 28 30 30 30 28 28 26 27 28 28 28 29 29 28 28 29 28 28 28 29 28 27 27 28 25 28
36 32 28 28 21 18 18 31 25 25 19 21 26 22 21 22 25 31 26 26 20 21 22 23 25 27 28 28 29 29 28 28 26 26 25 29 29 29 28 28 29 28 28 27 29 28 27 21 24 25 26 26 27 27
35 28 23 22 19 11 22 19 25 25 24 22 21 18 21 21 28 26 18 15 18 21 20 21 23 28 28 28 26 25 26 28 25 27 28 28 27 27 28 28 28 27 27 27 26 23 21 21 17 23 23 25 25 24
21 14 16 9 20 14 11 14 18 20 15 16 17 19 19 23 18 14 11 14 16 15 15 18 21 22 20 20 20 21 22 25 25 23 24 26 25 25 26 26 24 24 27 25 24 23 22 21 21 20 21 22 24 25
4 11 10 9 8 12 13 10 12 13 14 12 12 16 19 14 8 7 11 13 13 14 13 13 15 17 16 18 17 17 18 21 24 21 21 24 24 24 23 23 20 18 21 21 22 23 23 23 23 23 22 21 20 23
3 6 16 22 18 18 10 10 15 8 4 5 9 8 10 7 3 9 15 14 14 15 16 15 15 14 13 14 16 18 19 20 22 21 21 20 19 19 19 17 16 16 18 17 16 18 19 22 22 23 23 23 21 21
8 10 1 4 5 12 1 7 4 3 9 15 12 4 3 3 4 10 12 15 16 16 15 14 15 14 14 14 15 15 16 19 19 19 18 17 16 15 14 14 13 13 12 11 12 12 14 16 17 21 23 22 22 22
3 7 7 -6 -3 6 6 5 8 12 14 13 5 7 7 10 10 12 12 14 15 14 11 10 10 11 12 13 13 13 14 15 16 13 12 12 14 13 13 12 11 10 9 8 9 11 14 14 15 17 18 19 22 23
1 9 -1 -9 -7 2 2 5 5 3 10 11 14 13 10 8 10 11 12 12 10 8 8 7 7 7 6 6 7 9 10 11 10 10 9 10 12 14 12 10 10 9 7 7 7 8 9 10 13 14 14 15 17 17
6 3 -1 -1 -4 2 -2 -9 -9 -6 -5 2 2 4 5 6 9 10 9 7 6 5 7 5 5 3 4 3 4 4 6 8 8 8 9 10 12 11 11 10 9 7 6 5 5 6 6 8 10 9 11 12 13 13
-6 -8 -6 -4 -4 -6 -8 -8 -11 -8 -6 -2 -1 -2 2 1 -1 5 7 6 5 5 1 -3 0 4 2 -0 -1 1 -1 4 5 5 5 9 11 10 9 7 5 4 4 5 6 5 5 6 7 8 8 10 11 11
-13 -14 -14 -11 -6 -4 -8 -8 -7 -6 -6 -6 -4 -6 -1 -1 -4 2 3 -0 4 4 3 3 3 1 -1 -3 -1 -1 -3 1 -1 0 3 5 3 4 5 4 2 1 2 3 4 3 4 5 6 5 5 5 6 6
MSLP
995.61 994.37 993.07 991.83 990.61 989.29 988.19 987.21 986.39 985.61 984.94 985.03 985.39 985.89 986.33 987.20 988.00 989.25 990.28 990.55 991.80 992.14 992.39 991.72 991.80 992.44 993.61 993.78 995.70 999.06 1000.88 1002.24 1002.94 1003.36 1004.26 1005.06 1005.21 1005.19 1005.70 1006.49 1006.96 1007.67 1008.68 1009.38 1010.01 1009.62 1008.55 1007.80 1008.49 1008.02 1008.09 1008.66 1009.15 1009.51
996.67 995.57 994.46 993.31 992.22 991.24 990.07 988.99 988.00 987.34 986.70 986.53 986.04 985.76 986.20 986.91 988.00 988.85 990.29 990.76 991.51 993.35 993.45 993.59 993.43 993.25 992.89 993.15 994.85 998.33 999.20 1000.29 1001.45 1002.75 1003.93 1004.56 1005.05 1005.40 1005.48 1006.22 1006.69 1007.30 1006.43 1007.27 1008.03 1007.87 1007.50 1007.27 1007.21 1007.53 1008.15 1008.60 1009.10 1009.42
997.74 996.68 995.63 994.56 993.60 992.74 991.84 990.97 990.20 989.54 988.81 988.28 987.91 987.31 986.71 987.03 987.81 988.62 990.43 991.07 992.09 992.90 994.31 994.30 995.07 994.82 994.42 994.85 995.09 997.11 999.61 1000.28 1000.83 1001.19 1002.65 1004.18 1004.80 1005.24 1005.39 1005.67 1006.04 1006.24 1006.26 1006.86 1007.68 1007.65 1007.54 1007.38 1007.68 1008.05 1008.32 1008.71 1008.92 1009.12
998.67 997.72 996.77 995.77 994.74 993.86 993.10 992.36 991.48 990.96 990.72 989.97 989.57 989.14 988.82 988.55 989.21 989.59 990.75 991.39 991.33 991.85 994.34 996.79 996.30 996.11 996.36 996.13 996.40 996.95 998.71 1000.01 1000.87 1001.43 1002.61 1004.22 1004.97 1005.01 1005.25 1005.24 1005.29 1005.70 1006.13 1006.69 1007.34 1007.31 1007.81 1007.92 1007.84 1007.94 1008.34 1008.59 1008.77 1008.86
999.40 998.58 997.67 996.83 995.96 995.05 994.12 993.32 992.59 991.97 991.41 991.00 990.90 990.54 990.43 990.10 990.65 991.00 991.13 991.31 991.33 991.13 993.55 996.17 996.77 998.09 997.84 996.92 996.91 998.02 998.97 999.91 1000.95 1001.93 1003.17 1004.98 1005.29 1005.15 1005.75 1005.48 1005.37 1005.32 1005.54 1005.97 1006.34 1006.52 1006.71 1006.97 1007.21 1007.60 1007.92 1008.16 1008.41 1008.51
1000.04 999.23 998.52 997.72 996.90 996.10 995.28 994.44 993.66 992.99 992.42 991.79 991.34 991.34 991.04 991.10 990.69 990.57 991.79 992.34 992.38 992.34 993.89 996.69 999.27 998.81 998.03 997.77 998.68 999.56 999.98 1000.64 1001.48 1002.70 1004.15 1004.80 1005.07 1005.12 1005.65 1005.51 1005.00 1005.19 1005.49 1005.56 1005.99 1006.51 1006.68 1006.85 1007.15 1007.60 1007.79 1007.91 1008.04 1008.03
1000.52 999.83 999.08 998.34 997.76 997.02 996.16 995.41 994.62 993.96 993.39 992.99 992.46 991.95 991.85 991.33 990.85 992.42 994.23 994.62 993.44 993.12 994.72 997.19 999.57 999.71 999.52 999.32 1000.08 1000.53 1000.53 1001.55 1002.26 1003.49 1004.48 1004.98 1005.21 1005.22 1005.84 1005.66 1004.98 1005.12 1005.33 1005.84 1006.06 1006.40 1006.69 1006.91 1007.06 1007.27 1007.55 1007.57 1007.60 1007.56
1001.04 1000.39 999.76 999.08 998.25 997.48 996.94 996.24 995.43 994.69 994.03 993.62 993.35 993.01 992.65 992.45 992.60 993.41 994.30 994.11 994.12 994.55 995.63 998.60 1000.45 1000.85 1000.82 1001.44 1002.44 1002.80 1003.00 1003.07 1004.02 1004.52 1005.12 1005.33 1005.87 1006.05 1005.73 1005.06 1005.08 1005.19 1005.57 1005.85 1005.96 1006.33 1006.38 1006.75 1007.18 1007.41 1007.59 1007.57 1007.46 1007.44
1001.39 1000.82 1000.23 999.66 999.02 998.23 997.33 996.57 995.97 995.34 994.68 994.00 993.73 993.51 993.50 994.26 995.18 995.47 995.09 994.83 994.91 995.68 997.87 999.88 1001.05 1002.19 1002.27 1002.67 1002.92 1003.06 1002.85 1003.58 1004.37 1004.59 1005.17 1005.53 1005.87 1005.64 1004.88 1004.88 1005.16 1005.35 1005.44 1005.49 1005.79 1006.16 1006.50 1006.84 1007.07 1007.31 1007.29 1007.25 1007.12 1006.77
1001.64 1001.12 1000.60 1000.03 999.46 998.84 998.06 997.16 996.13 995.46 995.09 994.63 994.41 995.05 996.68 996.91 996.28 995.66 995.33 995.38 996.19 997.98 998.82 1000.83 1001.29 1001.88 1002.06 1002.53 1003.37 1003.70 1003.86 1004.44 1005.22 1005.73 1005.80 1005.80 1005.42 1005.06 1004.92 1004.78 1004.81 1004.91 1005.27 1005.63 1006.03 1006.44 1006.69 1006.91 1007.19 1007.35 1007.49 1007.51 1007.45 1007.62
1001.91 1001.39 1000.89 1000.34 999.78 999.26 998.67 997.93 997.01 995.95 995.56 996.11 996.99 997.79 997.50 996.91 996.68 997.31 998.16 998.52 999.14 1000.16 1000.87 1001.81 1001.73 1001.96 1002.59 1002.97 1003.41 1003.77 1004.03 1004.64 1005.07 1005.60 1005.50 1005.36 1004.91 1004.75 1004.93 1004.89 1005.05 1005.34 1005.76 1006.17 1006.38 1006.68 1006.96 1007.23 1007.33 1007.46 1007.46 1007.55 1007.63 1007.35
1002.16 1001.64 1001.10 1000.61 1000.11 999.58 999.09 998.52 997.90 997.63 998.01 998.10 998.17 998.10 997.89 998.05 998.25 998.83 999.82 999.72 999.79 1000.88 1001.47 1001.70 1002.15 1002.37 1002.73 1002.71 1003.09 1004.07 1004.19 1004.63 1004.65 1004.92 1004.91 1004.62 1004.49 1004.70 1005.37 1005.81 1006.12 1006.25 1006.37 1006.50 1006.71 1006.92 1007.16 1007.36 1007.23 1007.39 1007.65 1007.54 1007.45 1007.64
1002.31 1001.82 1001.26 1000.66 1000.22 999.81 999.37 998.94 998.47 998.32 998.18 998.38 998.56 998.89 999.21 999.77 999.85 1000.04 1000.32 1000.45 1000.59 1000.75 1001.06 1001.55 1002.21 1002.43 1002.79 1002.79 1003.46 1003.93 1004.28 1004.61 1004.59 1004.66 1004.46 1004.14 1004.38 1005.01 1005.52 1005.92 1006.22 1006.40 1006.52 1006.66 1006.87 1006.98 1007.03 1007.10 1007.39 1007.62 1007.62 1007.61 1007.66 1007.50
1002.35 1001.89 1001.40 1000.88 1000.27 999.81 999.50 999.22 998.82 998.48 998.45 999.37 999.75 1000.21 1000.57 1000.76 1000.64 1000.43 1000.25 1000.14 1000.67 1000.66 1000.85 1001.31 1001.88 1002.22 1002.76 1003.17 1003.58 1004.04 1004.53 1004.48 1004.59 1004.55 1003.94 1003.90 1004.24 1004.85 1005.48 1005.93 1006.15 1006.39 1006.68 1006.86 1006.91 1006.92 1007.13 1007.35 1007.44 1007.62 1007.60 1007.54 1007.48 1007.23
1002.35 1001.98 1001.66 1001.15 1000.52 999.94 999.59 999.34 999.18 999.07 999.61 1000.26 1000.53 1001.31 1001.30 1001.34 1001.17 1000.97 1000.76 1000.60 1001.11 1001.25 1001.46 1001.87 1001.98 1002.08 1002.55 1002.96 1003.23 1003.72 1004.27 1004.26 1004.05 1003.66 1003.47 1003.70 1004.42 1004.95 1005.42 1005.91 1006.31 1006.58 1006.55 1006.61 1006.92 1007.26 1007.43 1007.43 1007.52 1007.52 1007.46 1007.45 1007.25 1007.04
1002.31 1002.10 1002.08 1001.56 1000.86 1000.28 999.93 999.73 999.83 999.96 1000.54 1000.89 1001.13 1001.56 1001.75 1001.57 1001.65 1001.43 1001.23 1001.26 1001.32 1001.33 1001.20 1001.28 1001.60 1001.95 1002.38 1002.54 1002.96 1003.25 1003.51 1003.34 1002.93 1002.91 1003.06 1003.74 1004.36 1004.88 1005.34 1005.74 1005.95 1006.14 1006.48 1006.72 1006.94 1007.21 1007.37 1007.31 1007.37 1007.41 1007.40 1007.24 1007.07 1006.98
1002.49 1002.68 1002.39 1001.77 1001.21 1000.71 1000.36 1000.34 1000.59 1001.27 1001.43 1001.55 1001.77 1001.87 1001.96 1001.90 1001.79 1001.61 1001.33 1001.20 1001.17 1001.14 1001.49 1001.69 1002.05 1002.33 1002.63 1002.64 1002.75 1002.76 1002.65 1002.34 1002.33 1002.81 1003.18 1003.62 1004.18 1004.60 1005.12 1005.61 1006.03 1006.24 1006.44 1006.65 1007.04 1007.27 1007.42 1007.37 1007.32 1007.21 1007.10 1006.97 1006.89 1006.73
1002.73 1002.66 1002.49 1001.96 1001.56 1001.16 1001.07 1001.18 1001.63 1001.84 1001.81 1001.84 1002.07 1002.16 1002.11 1001.91 1001.82 1001.66 1001.39 1001.33 1001.32 1001.48 1001.77 1002.04 1002.18 1002.41 1002.49 1002.47 1002.37 1002.10 1002.35 1002.52 1002.76 1003.03 1003.49 1004.05 1004.55 1004.93 1005.28 1005.67 1006.02 1006.18 1006.33 1006.86 1007.10 1007.33 1007.40 1007.24 1007.04 1007.02 1006.98 1007.01 1006.82 1006.57
1002.74 1002.60 1002.35 1002.12 1001.99 1001.99 1001.94 1001.82 1001.90 1002.11 1002.04 1002.05 1002.04 1002.06 1001.97 1001.80 1001.68 1001.54 1001.38 1001.44 1001.41 1001.39 1001.85 1002.25 1002.40 1002.29 1002.15 1001.93 1001.78 1002.17 1002.50 1002.65 1003.10 1003.58 1003.91 1004.34 1004.77 1005.16 1005.47 1005.71 1005.88 1006.21 1006.49 1006.69 1006.88 1007.04 1007.16 1007.16 1007.11 1007.07 1007.02 1006.97 1006.86 1006.61
1002.56 1002.48 1002.30 1001.97 1002.20 1002.21 1002.01 1002.02 1002.03 1002.01 1001.92 1002.04 1002.04 1002.06 1001.82 1001.62 1001.55 1001.54 1001.64 1001.60 1001.60 1001.73 1001.95 1002.07 1001.90 1001.50 1001.44 1001.31 1001.33 1001.52 1001.96 1002.61 1003.13 1003.75 1004.23 1004.59 1005.08 1005.36 1005.44 1005.53 1005.63 1006.00 1006.26 1006.55 1006.78 1006.95 1007.07 1007.14 1007.16 1007.11 1006.98 1006.88 1006.73 1006.49
1002.64 1002.50 1002.29 1002.20 1002.23 1002.43 1002.43 1002.15 1001.95 1001.89 1001.57 1001.69 1001.68 1001.66 1001.58 1001.55 1001.47 1001.42 1001.38 1001.43 1001.74 1001.66 1001.61 1001.32 1001.12 1000.96 1001.07 1001.21 1001.33 1001.38 1001.74 1002.16 1002.59 1002.89 1003.58 1004.39 1004.86 1005.06 1005.31 1005.41 1005.60 1005.83 1006.10 1006.42 1006.70 1006.97 1007.18 1007.14 1007.16 1007.02 1006.88 1006.68 1006.55 1006.47
1002.94 1002.65 1002.69 1002.52 1002.92 1002.90 1002.83 1002.34 1002.11 1001.78 1001.88 1001.44 1001.43 1001.19 1001.20 1001.16 1001.03 1000.89 1001.05 1001.35 1001.71 1002.02 1002.44 1002.34 1001.98 1001.72 1001.56 1001.51 1001.46 1001.41 1001.67 1002.22 1002.82 1003.24 1003.70 1004.21 1004.50 1004.90 1005.25 1005.44 1005.53 1005.80 1006.03 1006.30 1006.62 1006.79 1006.97 1007.07 1007.10 1007.07 1006.88 1006.66 1006.58 1006.33
1002.92 1003.11 1003.48 1003.50 1003.56 1003.63 1003.19 1002.55 1002.27 1001.87 1001.80 1001.37 1001.19 1001.18 1000.96 1000.77 1000.45 1000.50 1000.94 1001.74 1003.29 1004.02 1003.92 1003.38 1002.67 1002.05 1001.74 1001.72 1001.78 1001.88 1002.18 1002.43 1003.11 1003.59 1004.02 1004.24 1004.60 1004.90 1005.28 1005.63 1005.79 1005.90 1006.07 1006.50 1006.76 1007.04 1007.28 1007.51 1007.29 1007.15 1006.96 1006.65 1006.45 1006.26
1003.37 1003.66 1004.05 1004.21 1004.40 1004.46 1003.79 1003.16 1002.60 1002.19 1001.74 1001.74 1001.61 1001.24 1000.73 1000.62 1000.66 1000.96 1002.37 1004.30 1005.27 1005.16 1004.66 1003.89 1002.96 1002.01 1001.88 1002.04 1002.42 1002.71 1002.88 1003.02 1003.51 1003.99 1004.24 1004.43 1004.90 1005.25 1005.55 1005.88 1006.19 1006.41 1006.63 1006.96 1007.25 1007.59 1007.77 1007.73 1007.71 1007.28 1007.06 1006.78 1006.57 1006.46
1004.22 1005.22 1005.46 1005.51 1005.36 1005.36 1005.07 1004.41 1003.81 1003.39 1003.16 1002.62 1002.48 1002.13 1001.92 1001.60 1001.80 1003.26 1004.80 1005.97 1006.33 1006.36 1006.02 1005.20 1004.26 1003.41 1003.53 1003.91 1004.08 1004.13 1004.06 1003.92 1003.91 1004.41 1004.97 1005.08 1005.41 1005.71 1005.96 1006.39 1006.90 1007.25 1007.30 1007.41 1007.68 1007.85 1007.96 1007.84 1007.79 1007.65 1007.41 1007.11 1006.77 1006.50
1005.66 1006.38 1006.50 1006.58 1006.61 1006.58 1006.24 1005.89 1005.51 1005.15 1004.80 1004.50 1004.41 1004.29 1003.87 1003.98 1004.82 1005.85 1006.84 1007.45 1007.73 1007.80 1007.57 1007.05 1006.45 1005.88 1005.75 1005.81 1005.74 1005.65 1005.68 1005.38 1004.99 1005.21 1005.87 1006.00 1006.12 1006.22 1006.54 1006.96 1007.63 1008.30 1008.39 1008.33 1008.11 1008.13 1008.10 1007.97 1007.83 1007.70 1007.55 1007.39 1007.15 1006.78
1007.05 1007.51 1007.35 1007.24 1007.36 1007.36 1007.34 1007.41 1007.02 1006.78 1006.64 1006.37 1006.25 1005.95 1005.79 1006.16 1007.03 1007.89 1008.38 1008.85 1008.84 1009.11 1008.99 1008.70 1008.22 1007.89 1007.83 1007.64 1007.35 1007.09 1006.74 1006.38 1006.10 1006.43 1007.08 1007.38 1007.56 1007.68 1007.65 1007.93 1008.54 1009.09 1009.02 1009.03 1008.94 1008.76 1008.57 1008.27 1007.99 1007.75 1007.57 1007.37 1007.28 1007.05
1007.69 1008.22 1008.78 1008.94 1008.79 1008.90 1008.93 1008.84 1008.69 1008.46 1007.99 1007.77 1007.55 1007.66 1008.02 1008.50 1009.22 1009.56 1009.73 1009.83 1009.73 1009.84 1009.85 1009.76 1009.49 1009.32 1009.07 1008.90 1008.62 1008.21 1007.76 1007.43 1007.44 1007.69 1008.08 1008.52 1008.86 1009.06 1009.23 1009.36 1009.64 1009.75 1009.74 1009.78 1009.63 1009.27 1009.00 1008.69 1008.31 1007.83 1007.55 1007.35 1007.04 1006.95
1008.87 1009.34 1009.76 1010.53 1010.44 1010.28 1010.38 1010.30 1010.18 1009.78 1009.44 1008.93 1008.88 1008.99 1009.43 1010.02 1010.43 1010.38 1010.57 1010.57 1010.51 1010.48 1010.57 1010.62 1010.55 1010.36 1010.09 1009.85 1009.60 1009.44 1009.13 1008.69 1008.33 1008.61 1008.87 1009.10 1009.23 1009.53 1009.70 1009.77 1009.85 1009.92 1010.00 1009.90 1009.66 1009.44 1009.06 1008.70 1008.39 1008.03 1007.63 1007.40 1007.01 1006.69
1010.25 1010.18 1011.00 1012.02 1011.99 1011.84 1011.67 1011.62 1011.60 1011.21 1010.57 1010.20 1009.89 1010.00 1010.44 1010.91 1011.14 1011.17 1011.16 1011.14 1011.23 1011.37 1011.52 1011.59 1011.60 1011.31 1011.28 1010.98 1010.78 1010.46 1010.42 1010.26 1010.20 1010.16 1010.08 1009.98 1009.88 1009.92 1009.99 1010.06 1010.12 1010.14 1010.14 1009.98 1009.67 1009.38 1009.06 1008.68 1008.20 1007.94 1007.81 1007.42 1007.07 1006.83
1011.04 1011.26 1012.02 1012.53 1013.00 1012.64 1012.77 1012.83 1012.76 1012.56 1011.86 1011.42 1011.12 1011.20 1011.49 1011.64 1011.68 1011.71 1011.79 1011.93 1012.03 1012.05 1011.99 1012.11 1012.03 1012.01 1011.98 1011.92 1011.82 1011.55 1011.26 1011.03 1010.92 1010.84 1010.73 1010.33 1010.03 1009.98 1009.98 1010.16 1010.27 1010.30 1010.22 1009.97 1009.72 1009.47 1009.21 1008.91 1008.56 1008.14 1007.76 1007.41 1007.00 1006.81
1012.40 1013.13 1013.71 1013.86 1013.84 1013.59 1013.52 1013.75 1013.70 1013.49 1013.05 1012.56 1012.48 1012.26 1012.40 1012.41 1012.43 1012.07 1012.06 1012.25 1012.47 1012.54 1012.55 1012.63 1012.63 1012.45 1012.37 1012.37 1012.26 1012.14 1012.03 1011.62 1011.21 1011.00 1010.72 1010.35 1010.08 1010.07 1010.18 1010.24 1010.16 1010.05 1010.06 1009.91 1009.70 1009.45 1009.20 1008.97 1008.60 1008.26 1007.94 1007.63 1007.41 1007.19
1014.05 1014.20 1014.57 1014.45 1014.51 1014.60 1014.78 1014.88 1014.75 1014.63 1014.24 1013.86 1013.72 1013.60 1013.35 1013.26 1012.98 1012.31 1012.22 1012.36 1012.55 1012.51 1012.56 1012.58 1012.44 1012.34 1012.30 1012.24 1011.98 1011.92 1011.94 1011.71 1011.44 1011.16 1010.90 1010.67 1010.36 1010.13 1010.08 1010.11 1010.15 1010.12 1009.97 1009.70 1009.50 1009.31 1009.04 1008.86 1008.55 1008.36 1008.22 1008.13 1008.07 1008.09
Wind_Speed
33 34 34 35 35 35 35 35 34 33 22 6 20 20 23 22 24 10 3 7 7 2 4 4 3 8 9 10 14 14 7 2 2 5 4 4 5 6 6 13 13 11 10 6 5 5 10 12 7 9 5 4 4 3
31 32 32 33 34 34 34 35 34 33 30 26 25 9 22 26 27 10 3 5 8 2 4 7 10 7 5 3 17 5 5 5 5 6 4 5 4 3 7 7 3 7 7 8 8 6 1 13 7 6 5 3 3 5
29 30 31 31 32 32 33 32 32 32 30 30 26 25 22 20 23 8 6 10 9 6 8 6 8 14 13 9 6 8 2 5 3 2 5 3 5 4 5 4 6 3 3 4 5 6 5 11 3 2 2 6 7 8
27 27 28 29 30 31 31 31 30 29 29 26 25 25 25 26 23 15 6 2 2 4 6 5 4 7 7 4 5 6 10 7 6 4 5 3 4 2 3 4 4 3 9 7 2 2 4 6 10 9 6 5 6 5
24 25 26 27 28 29 29 29 29 28 28 26 27 20 26 27 27 14 8 8 0 4 9 9 13 13 6 13 18 14 10 7 3 4 5 3 2 4 2 2 2 5 6 6 4 7 5 3 3 3 3 5 8 10
23 23 24 25 26 27 27 27 27 26 26 25 24 26 14 10 3 3 7 5 9 5 6 7 1 10 14 18 17 14 7 6 4 4 4 3 2 3 3 2 3 5 5 6 5 4 4 3 3 5 8 9 9 7
22 23 24 24 24 25 26 27 25 23 23 22 20 22 24 25 12 7 5 4 14 3 4 6 4 6 5 7 6 6 9 5 4 4 4 3 3 3 2 3 4 7 9 6 4 3 4 6 7 6 6 6 8 8
19 21 22 23 24 25 24 25 25 23 22 20 17 13 17 12 9 7 6 14 5 6 6 6 5 5 8 4 4 4 2 2 6 3 2 3 3 2 3 6 2 3 5 6 8 8 8 3 4 6 4 5 6 9
17 18 19 21 22 23 24 25 25 21 19 17 12 10 6 9 6 4 20 7 4 6 6 4 5 5 1 2 2 2 2 5 3 4 3 2 3 4 5 6 9 9 7 4 6 7 5 6 3 3 5 8 9 9
18 17 17 18 19 20 22 24 27 22 14 9 8 7 5 3 14 10 7 7 8 5 5 4 1 4 3 2 3 2 3 3 3 2 4 2 3 5 5 7 4 6 6 5 4 4 4 2 2 4 6 7 8 10
18 19 19 19 18 18 20 22 25 22 13 5 5 2 3 9 3 5 4 5 2 5 4 2 3 5 3 3 3 1 3 2 3 4 4 3 2 1 5 8 5 7 8 7 8 8 5 2 2 5 7 7 8 9
18 19 19 19 19 17 17 19 20 6 2 2 0 1 3 5 4 7 4 2 5 3 2 3 3 3 3 1 3 2 3 1 3 5 2 2 2 5 8 8 8 9 10 9 7 6 3 2 3 5 7 8 8 8
17 18 19 17 17 17 15 16 17 9 2 2 3 4 4 4 8 4 2 2 3 3 4 4 5 3 1 3 4 3 3 2 5 2 2 2 5 5 8 7 7 7 7 6 3 3 2 2 2 4 6 7 8 8
16 17 17 16 21 13 13 14 15 7 4 4 4 6 3 3 3 3 2 4 3 6 8 6 4 2 2 2 2 4 2 3 2 2 4 5 7 7 6 5 6 5 3 2 1 2 1 2 3 5 5 5 5 8
16 16 11 13 20 15 11 13 12 4 3 4 3 3 3 2 1 2 1 3 3 6 5 4 4 2 2 4 1 4 3 2 4 4 2 5 8 7 8 7 7 5 3 2 1 1 3 3 3 4 4 5 7 6
16 8 6 19 19 9 12 7 5 3 3 3 3 2 1 2 3 2 2 3 2 4 2 2 3 3 2 3 3 3 5 5 3 3 3 7 8 7 8 7 5 4 3 2 2 0 2 3 3 4 4 4 7 7
9 2 15 16 16 13 11 4 4 5 2 2 1 1 1 1 2 1 1 1 2 2 2 3 3 2 2 2 3 4 4 3 3 3 5 6 6 5 5 4 3 2 2 2 1 3 3 4 2 4 7 8 7 8
1 4 14 15 12 5 4 3 3 3 2 0 0 2 1 1 1 1 1 3 3 2 3 2 3 3 4 4 3 2 2 2 3 5 5 6 5 4 4 4 2 1 2 3 1 2 2 4 5 4 6 6 7 7
6 6 12 13 6 3 3 2 1 2 2 1 1 1 1 2 2 1 1 4 0 2 5 3 3 4 4 4 3 3 4 5 4 4 4 5 5 5 4 2 2 4 2 0 1 1 1 3 2 3 3 4 5 5
7 8 11 6 2 2 2 1 0 1 2 1 1 2 2 1 0 1 3 4 4 2 3 4 5 4 4 3 4 3 4 6 6 5 4 2 2 4 3 2 2 3 2 1 2 2 3 3 3 2 3 4 4 5
5 3 7 2 0 1 2 2 2 2 2 2 2 2 1 1 2 3 3 4 3 3 3 4 3 2 2 1 2 2 6 6 4 4 4 5 4 5 3 3 3 3 2 1 1 1 1 1 2 3 4 4 3 3
2 7 2 2 1 2 2 2 3 1 2 2 2 2 2 2 3 4 5 4 3 3 4 4 4 2 3 4 5 4 5 7 6 6 6 6 5 4 3 3 3 3 2 1 2 1 1 2 2 2 3 4 3 2
4 3 2 1 3 3 5 1 2 3 2 3 1 2 3 3 2 5 3 3 5 5 7 7 8 7 5 2 3 6 6 9 6 5 5 5 5 5 5 3 2 0 2 3 3 2 3 4 3 3 4 3 3 3
2 1 1 2 1 4 3 3 2 3 1 1 2 3 3 1 4 2 4 4 4 8 8 12 8 3 2 5 2 3 3 4 6 5 4 6 6 5 5 4 5 5 5 4 3 3 3 4 4 4 5 5 3 3
2 4 3 4 3 5 4 5 4 3 3 3 4 4 4 5 3 4 3 3 6 7 9 9 9 9 7 6 6 6 9 3 5 7 4 4 4 4 4 6 6 6 4 4 4 3 3 4 5 6 6 6 6 5
4 3 3 0 3 2 3 3 4 4 3 4 4 4 4 3 4 3 3 4 4 6 8 8 8 7 9 7 6 7 6 6 3 5 5 4 3 3 4 6 5 4 5 4 3 3 4 4 4 6 6 8 8 7
3 1 1 3 1 2 3 3 3 3 4 4 4 5 5 4 3 3 2 5 3 4 5 6 6 7 6 6 6 6 5 5 5 7 7 7 7 7 5 5 5 3 3 4 4 4 4 5 5 6 7 6 4 5
3 1 3 3 3 2 2 2 2 2 2 4 3 5 2 1 1 1 2 3 3 4 5 6 6 6 5 5 5 6 5 5 8 8 7 7 7 7 7 5 5 6 4 4 4 3 3 4 5 6 6 8 8 6
2 0 3 4 3 2 1 2 1 1 3 1 0 1 1 2 2 1 2 3 3 3 4 5 6 5 5 4 5 6 6 6 4 4 5 3 2 4 4 4 4 4 4 4 5 4 6 6 6 6 7 6 7 6
1 1 4 2 3 1 3 1 2 2 2 2 1 2 2 1 1 2 1 2 3 2 2 2 2 4 4 5 5 6 5 5 6 4 3 2 2 3 2 3 3 3 4 5 6 6 6 3 3 2 4 4 4 4
2 2 4 2 3 2 2 3 3 1 3 2 2 3 2 2 0 0 1 1 1 1 2 3 3 3 3 4 4 4 3 1 4 5 4 4 4 2 1 2 2 2 3 4 5 5 5 4 4 5 6 6 6 4
3 3 4 1 3 3 4 4 2 2 4 2 2 2 2 2 2 1 1 2 2 1 1 1 1 2 2 2 3 3 5 5 5 5 8 5 4 3 3 3 2 2 4 4 4 3 3 5 5 5 5 5 4 2
2 2 2 2 4 5 3 3 5 5 3 2 2 1 2 3 5 3 0 0 2 3 2 2 3 4 4 5 5 3 3 3 5 6 6 6 5 4 2 2 2 3 4 4 3 3 4 4 3 2 1 2 3 4
Wind_Direction
13 14 16 19 23 27 30 34 40 42 51 163 196 189 194 189 184 164 127 164 157 352 6 148 96 137 135 151 151 154 118 185 107 96 112 148 140 178 133 153 169 166 156 176 169 200 249 163 141 193 131 152 178 199
14 15 17 18 21 28 31 33 35 39 51 52 52 96 202 179 166 131 102 95 84 319 88 60 58 47 28 112 126 140 91 112 151 113 149 128 111 150 143 166 178 177 175 167 183 201 192 173 182 163 146 180 219 226
14 15 16 17 18 21 26 33 37 37 40 54 64 57 70 166 165 109 103 123 110 145 81 55 50 78 65 58 55 112 71 136 94 108 132 115 119 167 152 164 129 120 127 121 152 175 187 199 182 205 238 243 253 260
12 14 16 16 15 16 19 23 27 34 47 40 55 69 76 79 81 75 82 304 84 81 89 53 44 38 344 74 86 86 108 87 108 83 85 97 117 232 138 126 118 136 150 150 111 207 163 200 211 217 220 236 256 260
11 11 12 15 15 13 13 14 16 20 24 37 48 60 85 89 94 88 71 37 173 132 111 101 66 24 85 98 83 89 110 100 68 74 71 90 103 125 50 101 157 180 150 165 189 198 202 189 160 210 268 250 259 279
10 10 12 12 11 12 11 9 8 11 17 19 27 46 63 130 197 106 89 7 13 23 85 86 15 30 44 66 64 60 63 72 76 91 95 92 54 91 93 156 265 204 196 179 207 183 200 253 273 261 268 264 272 268
7 9 9 8 11 10 6 5 2 3 8 16 20 29 49 68 69 55 68 293 327 8 95 77 61 356 353 34 34 27 30 46 62 87 65 92 71 61 102 187 250 213 221 217 216 141 272 241 256 256 249 254 284 276
4 6 7 8 5 4 4 3 1 357 358 5 13 26 38 45 74 37 4 4 354 78 58 80 63 29 9 34 64 347 71 43 31 101 98 93 102 60 242 224 220 194 200 222 225 207 232 264 258 247 258 281 295 302
359 2 3 4 5 3 359 357 358 354 350 352 3 23 35 31 30 312 318 336 15 86 97 88 129 138 27 79 108 72 36 64 12 65 77 128 124 221 225 179 190 200 194 180 176 188 197 216 245 293 304 300 291 311
351 355 357 359 0 1 0 357 353 356 354 6 28 36 24 319 308 328 3 24 23 3 44 77 305 88 72 42 49 72 28 95 108 90 124 193 233 260 265 230 184 165 184 165 172 185 149 124 321 314 305 314 314 303
350 351 352 354 356 358 1 2 359 356 20 34 37 44 256 316 30 32 46 58 349 56 35 49 53 104 17 107 122 34 124 132 137 154 173 188 241 117 66 66 105 114 116 106 111 108 107 140 288 305 308 304 299 308
354 353 352 349 348 351 357 1 7 22 25 23 302 332 345 27 33 70 31 1 40 92 96 92 69 97 82 81 94 63 99 152 129 141 145 210 166 121 126 114 109 115 116 109 104 109 100 21 343 316 299 303 305 296
345 345 345 347 353 347 350 357 0 359 54 27 37 37 32 324 42 78 105 62 103 133 144 135 103 92 97 62 68 81 87 131 127 134 219 188 141 128 145 139 122 110 102 102 116 113 74 20 326 298 297 292 289 292
339 341 342 352 356 355 349 355 358 1 54 51 30 16 69 357 41 33 111 101 93 116 121 114 101 106 102 106 130 110 129 132 141 197 227 164 167 148 133 125 134 129 135 127 137 36 348 287 290 281 267 275 277 288
345 339 344 345 348 344 352 356 4 32 69 63 52 51 42 331 44 22 18 94 68 125 124 120 100 119 119 113 120 116 124 180 206 222 202 160 154 153 150 149 151 151 153 114 126 238 258 293 280 281 292 309 312 305
342 355 354 347 348 0 351 2 18 42 43 50 61 99 65 45 350 34 58 101 144 137 138 63 102 96 91 114 136 187 168 213 221 197 155 145 158 170 170 173 173 141 144 155 106 203 291 313 295 318 332 337 330 313
3 21 342 347 347 334 357 26 27 34 69 52 320 4 153 196 210 220 176 105 124 80 95 94 125 174 107 133 195 182 209 214 162 149 147 150 154 156 157 154 160 185 195 152 106 19 341 329 3 351 344 340 329 317
306 339 332 334 347 345 352 46 62 34 15 302 360 266 229 232 167 223 199 155 117 110 124 163 135 171 182 191 214 213 181 114 123 141 132 136 154 153 153 163 199 227 105 84 45 306 333 354 355 343 330 336 328 324
320 318 317 317 337 314 345 359 41 7 274 288 266 240 252 263 246 343 116 158 115 120 123 150 152 198 213 212 200 181 185 178 163 155 149 142 136 153 165 214 136 102 105 271 283 269 334 16 5 341 342 338 332 328
338 340 339 337 64 294 267 225 244 285 296 284 289 236 238 222 84 112 136 164 162 155 173 191 214 207 194 212 191 177 170 164 144 141 155 150 174 177 188 160 124 134 128 100 92 52 52 43 27 339 330 327 322 335
356 302 342 353 342 302 292 309 227 236 276 249 245 227 244 159 200 188 170 166 192 205 223 220 215 227 181 262 220 157 151 156 170 154 154 155 165 152 167 162 138 124 111 101 127 109 108 8 321 334 335 323 304 307
271 359 5 352 4 319 285 263 274 307 231 256 275 216 226 212 209 198 155 183 199 37 10 345 341 300 219 219 203 188 144 128 123 111 93 120 153 143 127 95 126 134 140 137 159 53 342 330 318 312 305 323 307 290
23 54 26 329 14 21 263 294 273 230 222 234 218 257 234 221 227 158 179 68 54 5 332 306 308 283 248 121 144 122 123 136 138 141 144 146 123 117 109 81 46 19 154 104 93 72 40 355 3 352 340 317 329 320
44 46 34 319 102 268 332 291 266 271 294 301 227 257 246 242 165 201 67 51 350 344 348 341 315 252 141 113 92 101 98 135 126 127 143 140 137 126 125 122 94 72 69 74 71 59 37 21 359 18 12 352 335 331
54 330 63 351 350 5 351 340 323 352 322 314 340 354 7 335 46 66 68 30 3 359 353 350 14 34 69 65 51 45 26 45 126 114 65 98 113 115 136 102 85 58 45 77 66 47 32 27 21 12 5 8 353 335
87 310 81 185 303 14 319 322 352 349 334 328 359 328 332 48 61 56 58 9 26 4 0 5 6 31 45 35 42 29 7 349 72 90 60 51 68 134 151 148 142 74 22 22 18 11 357 358 358 356 352 351 346 353
97 293 13 25 334 319 348 2 353 50 12 355 343 337 358 45 63 58 83 19 24 17 14 12 16 30 27 17 11 4 1 4 41 88 86 69 57 46 60 89 92 45 358 16 15 7 344 337 335 335 327 325 318 332
156 112 128 294 43 23 133 13 40 7 350 347 4 21 70 37 132 25 23 8 27 56 42 31 27 18 16 11 5 360 359 13 90 97 99 81 66 61 56 59 55 34 23 7 345 332 323 315 308 306 309 310 310 309
86 321 99 24 10 36 90 140 270 3 351 338 41 321 81 59 360 30 39 20 28 58 55 39 17 7 23 25 29 23 15 20 45 71 64 68 80 51 33 37 29 24 14 352 335 313 303 295 293 289 284 284 292 298
266 85 94 74 102 199 246 81 271 296 332 337 320 103 82 64 25 357 47 40 44 57 62 55 28 37 30 21 10 19 34 44 40 39 13 358 337 334 347 1 357 359 355 350 339 328 329 332 308 341 334 315 306 301
11 72 75 82 197 252 264 310 293 183 26 17 12 105 137 141 345 3 33 44 63 59 80 33 15 20 24 14 9 359 350 359 13 358 335 309 299 303 317 322 320 325 331 334 333 330 327 322 320 316 311 308 305 290
27 103 122 70 292 296 14 42 2 35 341 50 359 35 42 61 244 245 202 132 105 139 188 171 313 313 305 286 269 265 267 293 314 326 326 321 324 329 320 316 332 342 326 314 313 306 297 300 301 309 310 312 326 17
59 59 54 62 9 2 343 58 24 349 15 21 339 323 229 190 230 232 298 185 180 178 200 238 263 282 291 290 286 303 264 278 287 292 306 318 315 317 343 350 335 319 307 304 300 291 289 288 288 303 2 81 84 84